Pecos, TX

11:30 PM CDT on May 25, 2017 (GMT -0500)
Pecos Municipal

Weather History for KPEQ - April, 2013

Change the Weather History Date:

Monday, April 29, 2013

  Actual Average Record
Temperature  
Mean Temperature 72 °F -  
Max Temperature 92 °F 88 °F 104 °F (1948)
Min Temperature 52 °F 50 °F 35 °F (2015)
Cooling Degree Days 7    
Growing Degree Days 22 (Base 50)    
Moisture  
Dew Point 42 °F    
Average Humidity 46    
Maximum Humidity 70    
Minimum Humidity 12    
Precipitation  
Precipitation 0.00 in - - ()
Sea Level Pressure  
Sea Level Pressure 29.86 in    
Wind  
Wind Speed 9 mph (SE)    
Max Wind Speed 15 mph    
Max Gust Speed 21 mph    
Visibility 10 miles    
Events      
Averages and records for this station are not official NWS values.
T = Trace of Precipitation, MM = Missing Value Source: NWS Daily Summary

Daily Weather History Graph

Daily Weather History Graph

Search for Another Location

Airport or City:

Trip Planner

Search our weather history database for the weather conditions in past years. The results will help you decide how hot, cold, wet, or windy it might be!

Date:

Astronomy

Apr. 29, 2013 Rise Set
Actual Time 7:10 AM CDT 8:32 PM CDT
Civil Twilight 6:45 AM CDT 8:58 PM CDT
Nautical Twilight 6:14 AM CDT 9:28 PM CDT
Astronomical Twilight 5:42 AM CDT 10:00 PM CDT
Moon No Moon Rise 10:40 AM CDT (4/29)
Length of Visible Light 14h 13m
Length of Day
13h 21m
Waning Gibbous, 80% of the Moon is Illuminated
Apr 29
Waning Gibbous
May 2
Last Quarter
May 9
New
May 17
First Quarter
May 24
Full

Hourly Weather History & Observations

Time (CDT) Temp. Dew Point Humidity Pressure Visibility Wind Dir Wind Speed Gust Speed Precip Events Conditions
12:15 AM 67.3 °F 42.8 °F 41% 29.90 in 10.0 mi South 13.8 mph 18.4 mph N/A   Clear
12:35 AM 67.5 °F 42.8 °F 41% 29.91 in 10.0 mi SSE 15.0 mph 18.4 mph N/A   Clear
12:55 AM 67.5 °F 42.8 °F 41% 29.91 in 10.0 mi SSE 15.0 mph 20.7 mph N/A   Clear
1:15 AM 67.1 °F 44.1 °F 43% 29.91 in 10.0 mi South 10.4 mph - N/A   Clear
1:35 AM 65.7 °F 44.1 °F 46% 29.91 in 10.0 mi SSE 8.1 mph - N/A   Clear
1:55 AM 65.5 °F 45.3 °F 48% 29.90 in 10.0 mi South 11.5 mph 16.1 mph N/A   Clear
2:15 AM 65.7 °F 45.9 °F 49% 29.89 in 10.0 mi South 12.7 mph - N/A   Clear
2:35 AM 65.7 °F 45.5 °F 48% 29.89 in 10.0 mi South 12.7 mph - N/A   Clear
2:55 AM 63.5 °F 45.5 °F 52% 29.89 in 10.0 mi SE 8.1 mph - N/A   Clear
3:15 AM 62.2 °F 45.5 °F 54% 29.89 in 10.0 mi SSE 5.8 mph - N/A   Clear
3:35 AM 58.1 °F 43.7 °F 59% 29.90 in 10.0 mi East 8.1 mph - N/A   Clear
3:55 AM 58.3 °F 43.9 °F 59% 29.91 in 10.0 mi East 5.8 mph - N/A   Clear
4:15 AM 58.3 °F 44.2 °F 60% 29.90 in 10.0 mi Calm Calm - N/A   Clear
4:35 AM 57.2 °F 44.2 °F 62% 29.90 in 10.0 mi SE 4.6 mph - N/A   Clear
4:55 AM 56.5 °F 43.9 °F 63% 29.89 in 10.0 mi ESE 6.9 mph - N/A   Clear
5:15 AM 55.2 °F 43.7 °F 65% 29.89 in 10.0 mi ESE 6.9 mph - N/A   Clear
5:35 AM 54.9 °F 43.9 °F 66% 29.89 in 10.0 mi Calm Calm - N/A   Clear
5:55 AM 54.5 °F 43.7 °F 67% 29.88 in 10.0 mi East 3.5 mph - N/A   Clear
6:35 AM 52.7 °F 43.0 °F 70% 29.89 in 10.0 mi East 4.6 mph - N/A   Clear
6:55 AM 52.3 °F 42.8 °F 70% 29.89 in 10.0 mi Calm Calm - N/A   Clear
7:35 AM 52.7 °F 42.8 °F 69% 29.90 in 10.0 mi Calm Calm - N/A   Clear
7:55 AM 52.0 °F 41.9 °F 69% 29.90 in 10.0 mi Calm Calm - N/A   Clear
8:15 AM 55.0 °F 43.5 °F 65% 29.90 in 10.0 mi Calm Calm - N/A   Clear
8:35 AM 57.2 °F 44.6 °F 63% 29.91 in 10.0 mi Calm Calm - N/A   Clear
10:55 AM 73.2 °F 44.2 °F 35% 29.89 in 10.0 mi West 3.5 mph - N/A   Clear
11:15 AM 74.7 °F 43.5 °F 33% 29.89 in 10.0 mi Calm Calm - N/A   Clear
2:15 PM 89.4 °F 36.7 °F 16% 29.82 in 10.0 mi SE 4.6 mph - N/A   Clear
2:55 PM 89.2 °F 34.9 °F 15% 29.79 in 10.0 mi West 4.6 mph - N/A   Clear
4:35 PM 91.6 °F 32.4 °F 12% 29.74 in 10.0 mi ENE 4.6 mph - N/A   Clear
5:55 PM 92.3 °F 32.5 °F 12% 29.71 in 10.0 mi East 9.2 mph - N/A   Clear
8:55 PM 79.2 °F 31.1 °F 17% 29.71 in 10.0 mi East 9.2 mph - N/A   Clear
9:35 PM 76.1 °F 32.0 °F 20% 29.72 in 10.0 mi East 10.4 mph - N/A   Clear
9:55 PM 75.0 °F 35.6 °F 24% 29.72 in 10.0 mi ESE 10.4 mph - N/A   Clear
11:35 PM 73.2 °F 40.5 °F 31% 29.73 in 10.0 mi SE 13.8 mph - N/A   Clear
11:55 PM 72.0 °F 40.1 °F 32% 29.73 in 10.0 mi SE 13.8 mph - N/A   Clear